Location: Bremen
(53.0793°N, 8.8017°E)
Time: 12:01:17
(UTC+02:00)

Altair - Pass Details

Date: 22 April 2024
Orbit: 1501 x 1682 km, 47.2° (Epoch: 17 May)

Event Time Altitude Azimuth Distance (km) Brightness Sun altitude
Rises 22:43:47 0° 264° (W) 4,901 10.6 -16.0°
Reaches altitude 10° 22:47:00 10° 261° (W) 3,896 10.0 -16.3°
Maximum altitude 22:56:44 63° 184° (S) 1,768 7.6 -17.2°
Enters shadow 23:04:42 16° 109° (ESE) 3,326 8.8 -18.0°
Drops below altitude 10° 23:06:06 10° 107° (ESE) 3,755 - -18.1°
Sets 23:09:09 0° 104° (ESE) 4,716 - -18.3°
